• In Denmark
  • List of Countries
  • For 7 days
  • Water Temperature
  • Satellite Maps
  • Weather Map
  • Weather Widgets
  • user-avatar
    Login

    Hourly Weather Salzburg

    Today, 21 July, Friday

    Time Temperature Precipitation Wind Pressure Humidity
    00:00 +11°C° 0.3 mm 1 mps 628 mmHg 96%
    01:00 +11°C° 0.3 mm 1 mps 628 mmHg 95%
    02:00 +10°C° 0 mm 1 mps 627 mmHg 94%
    03:00 +10°C° 0 mm 1 mps 627 mmHg 92%
    04:00 +9°C° 0 mm 1 mps 627 mmHg 91%
    05:00 +11°C° 0 mm 1 mps 627 mmHg 88%
    06:00 +12°C° 0 mm 1 mps 628 mmHg 86%
    07:00 +13°C° 0 mm 1 mps 628 mmHg 83%
    08:00 +15°C° 0 mm 1 mps 629 mmHg 73%
    09:00 +18°C° 0 mm 1 mps 630 mmHg 63%
    10:00 +20°C° 0 mm 1 mps 630 mmHg 52%
    11:00 +20°C° 0.2 mm 2 mps 630 mmHg 52%
    12:00 +21°C° 0.2 mm 2 mps 630 mmHg 51%
    13:00 +23°C° 0.2 mm 2 mps 630 mmHg 51%
    14:00 +23°C° 0.3 mm 2 mps 630 mmHg 53%
    15:00 +21°C° 0.3 mm 2 mps 630 mmHg 55%
    16:00 +21°C° 0.3 mm 2 mps 629 mmHg 57%
    17:00 +19°C° 0.6 mm 2 mps 629 mmHg 65%
    18:00 +18°C° 0.6 mm 2 mps 628 mmHg 73%
    19:00 +18°C° 0.6 mm 1 mps 628 mmHg 82%
    20:00 +15°C° 0.3 mm 2 mps 628 mmHg 84%
    21:00 +14°C° 0.3 mm 2 mps 627 mmHg 87%
    22:00 +13°C° 0.3 mm 2 mps 627 mmHg 89%
    23:00 +13°C° 0.1 mm 2 mps 627 mmHg 89%

    Tomorrow, 22 July, Saturday

    Time Temperature Precipitation Wind Pressure Humidity
    00:00 +12°C° 0.1 mm 2 mps 627 mmHg 89%
    01:00 +12°C° 0.1 mm 2 mps 627 mmHg 89%
    02:00 +11°C° 0.3 mm 1 mps 627 mmHg 88%
    03:00 +11°C° 0.3 mm 1 mps 627 mmHg 87%
    04:00 +11°C° 0.3 mm 1 mps 627 mmHg 87%
    05:00 +12°C° 0.3 mm 1 mps 627 mmHg 84%
    06:00 +13°C° 0.3 mm 1 mps 628 mmHg 81%
    07:00 +15°C° 0.3 mm 1 mps 629 mmHg 78%
    08:00 +16°C° 0.2 mm 1 mps 629 mmHg 71%
    09:00 +19°C° 0.2 mm 1 mps 630 mmHg 65%
    10:00 +21°C° 0.2 mm 1 mps 631 mmHg 58%
    11:00 +21°C° 0.6 mm 1 mps 630 mmHg 60%
    12:00 +22°C° 0.6 mm 1 mps 630 mmHg 61%
    13:00 +22°C° 0.6 mm 1 mps 630 mmHg 63%
    14:00 +21°C° 1.2 mm 1 mps 630 mmHg 66%
    15:00 +21°C° 1.2 mm 1 mps 630 mmHg 69%
    16:00 +21°C° 1.2 mm 1 mps 630 mmHg 72%
    17:00 +20°C° 1.1 mm 1 mps 630 mmHg 77%
    18:00 +16°C° 1.1 mm 0 mps 629 mmHg 82%
    19:00 +15°C° 1.1 mm 0 mps 629 mmHg 87%
    20:00 +14°C° 0.7 mm 0 mps 629 mmHg 88%
    21:00 +14°C° 0.7 mm 1 mps 629 mmHg 89%
    22:00 +13°C° 0.7 mm 1 mps 629 mmHg 90%
    23:00 +13°C° 0.3 mm 1 mps 629 mmHg 91%

    Day after tomorrow, 23 July, Sunday

    Time Temperature Precipitation Wind Pressure Humidity
    00:00 +12°C° 0.3 mm 1 mps 628 mmHg 91%
    01:00 +12°C° 0.3 mm 1 mps 628 mmHg 91%
    02:00 +12°C° 0.4 mm 1 mps 628 mmHg 92%
    03:00 +11°C° 0.4 mm 1 mps 628 mmHg 93%
    04:00 +11°C° 0.4 mm 1 mps 628 mmHg 94%
    05:00 +12°C° 0.1 mm 1 mps 628 mmHg 92%
    06:00 +13°C° 0.1 mm 1 mps 629 mmHg 89%
    07:00 +15°C° 0.1 mm 1 mps 629 mmHg 87%
    08:00 +16°C° 0.4 mm 1 mps 630 mmHg 78%
    09:00 +19°C° 0.4 mm 1 mps 630 mmHg 69%
    10:00 +21°C° 0.4 mm 1 mps 631 mmHg 60%
    11:00 +21°C° 0.3 mm 1 mps 631 mmHg 59%
    12:00 +21°C° 0.3 mm 2 mps 631 mmHg 57%
    13:00 +21°C° 0.3 mm 2 mps 631 mmHg 56%
    14:00 +20°C° 0.8 mm 2 mps 631 mmHg 65%
    15:00 +19°C° 0.8 mm 2 mps 630 mmHg 74%
    16:00 +18°C° 0.8 mm 2 mps 630 mmHg 82%
    17:00 +18°C° 0.7 mm 1 mps 629 mmHg 86%
    18:00 +16°C° 0.7 mm 1 mps 629 mmHg 91%
    19:00 +15°C° 0.7 mm 1 mps 629 mmHg 95%
    20:00 +14°C° 2.4 mm 1 mps 629 mmHg 96%
    21:00 +13°C° 2.4 mm 1 mps 628 mmHg 97%
    22:00 +12°C° 2.4 mm 1 mps 628 mmHg 98%
    23:00 +12°C° 3 mm 1 mps 628 mmHg 98%

    24 July, Monday

    Time Temperature Precipitation Wind Pressure Humidity
    00:00 +12°C° 3 mm 1 mps 628 mmHg 98%
    01:00 +12°C° 3 mm 1 mps 628 mmHg 98%
    02:00 +11°C° 0.7 mm 1 mps 627 mmHg 98%
    03:00 +11°C° 0.7 mm 1 mps 627 mmHg 98%
    04:00 +11°C° 0.7 mm 1 mps 627 mmHg 98%
    05:00 +11°C° 0.2 mm 1 mps 626 mmHg 97%
    06:00 +11°C° 0.2 mm 1 mps 626 mmHg 96%
    07:00 +11°C° 0.2 mm 1 mps 626 mmHg 96%
    08:00 +12°C° 0.1 mm 1 mps 626 mmHg 92%
    09:00 +13°C° 0.1 mm 1 mps 626 mmHg 88%
    10:00 +14°C° 0.1 mm 1 mps 626 mmHg 84%
    11:00 +14°C° 0.3 mm 1 mps 626 mmHg 80%
    12:00 +15°C° 0.3 mm 1 mps 626 mmHg 76%
    13:00 +16°C° 0.3 mm 1 mps 626 mmHg 72%
    14:00 +14°C° 2 mm 2 mps 625 mmHg 80%
    15:00 +13°C° 2 mm 2 mps 624 mmHg 87%
    16:00 +12°C° 2 mm 2 mps 624 mmHg 94%
    17:00 +10°C° 3.9 mm 2 mps 624 mmHg 95%
    18:00 +9°C° 3.9 mm 2 mps 624 mmHg 96%
    19:00 +8°C° 3.9 mm 2 mps 623 mmHg 97%
    20:00 +7°C° 0.3 mm 2 mps 624 mmHg 97%
    21:00 +7°C° 0.3 mm 2 mps 624 mmHg 96%
    22:00 +7°C° 0.3 mm 2 mps 624 mmHg 96%
    23:00 +7°C° 0.1 mm 2 mps 624 mmHg 96%

    25 July, Tuesday

    Time Temperature Precipitation Wind Pressure Humidity
    00:00 +7°C° 0.1 mm 2 mps 624 mmHg 96%
    01:00 +6°C° 0.1 mm 2 mps 623 mmHg 96%
    02:00 +6°C° 0 mm 2 mps 623 mmHg 96%
    03:00 +6°C° 0 mm 2 mps 623 mmHg 96%
    04:00 +6°C° 0 mm 2 mps 623 mmHg 96%
    05:00 +6°C° 0.1 mm 2 mps 623 mmHg 94%
    06:00 +7°C° 0.1 mm 2 mps 623 mmHg 93%
    07:00 +7°C° 0.1 mm 2 mps 624 mmHg 92%
    08:00 +8°C° 0.3 mm 2 mps 624 mmHg 89%
    09:00 +8°C° 0.3 mm 2 mps 624 mmHg 86%
    10:00 +9°C° 0.3 mm 2 mps 624 mmHg 84%
    11:00 +10°C° 0.3 mm 2 mps 625 mmHg 81%
    12:00 +11°C° 0.3 mm 3 mps 625 mmHg 78%
    13:00 +11°C° 0.3 mm 3 mps 625 mmHg 75%
    14:00 +11°C° 0.3 mm 3 mps 625 mmHg 75%
    15:00 +11°C° 0.3 mm 3 mps 625 mmHg 75%
    16:00 +12°C° 0.3 mm 2 mps 625 mmHg 74%
    17:00 +10°C° 0.2 mm 2 mps 625 mmHg 78%
    18:00 +9°C° 0.2 mm 2 mps 625 mmHg 82%
    19:00 +9°C° 0.2 mm 2 mps 625 mmHg 87%
    20:00 +7°C° 0.1 mm 2 mps 625 mmHg 90%
    21:00 +6°C° 0.1 mm 2 mps 625 mmHg 93%
    22:00 +5°C° 0.1 mm 2 mps 625 mmHg 96%
    23:00 +5°C° 0 mm 2 mps 625 mmHg 95%

    26 July, Wednesday

    Time Temperature Precipitation Wind Pressure Humidity
    00:00 +4°C° 0 mm 2 mps 625 mmHg 95%
    01:00 +4°C° 0 mm 2 mps 625 mmHg 95%
    02:00 +4°C° 0 mm 2 mps 625 mmHg 95%
    03:00 +3°C° 0 mm 2 mps 625 mmHg 94%
    04:00 +3°C° 0 mm 2 mps 625 mmHg 94%
    05:00 +6°C° 0 mm 1 mps 626 mmHg 90%
    06:00 +7°C° 0 mm 1 mps 626 mmHg 86%
    07:00 +9°C° 0 mm 1 mps 627 mmHg 82%
    08:00 +11°C° 0 mm 1 mps 628 mmHg 71%
    09:00 +13°C° 0 mm 1 mps 628 mmHg 61%
    10:00 +15°C° 0 mm 1 mps 629 mmHg 50%
    11:00 +16°C° 0 mm 1 mps 629 mmHg 47%
    12:00 +18°C° 0 mm 1 mps 630 mmHg 45%
    13:00 +19°C° 0 mm 1 mps 630 mmHg 42%
    14:00 +19°C° 0 mm 1 mps 629 mmHg 44%
    15:00 +19°C° 0 mm 1 mps 629 mmHg 46%
    16:00 +17°C° 0 mm 2 mps 629 mmHg 47%
    17:00 +16°C° 0 mm 1 mps 628 mmHg 58%
    18:00 +14°C° 0 mm 1 mps 628 mmHg 68%
    19:00 +13°C° 0 mm 1 mps 628 mmHg 79%
    20:00 +11°C° 0 mm 1 mps 627 mmHg 83%
    21:00 +10°C° 0 mm 1 mps 627 mmHg 86%
    22:00 +9°C° 0 mm 1 mps 627 mmHg 90%
    23:00 +8°C° 0 mm 1 mps 627 mmHg 89%
    Show more